When you browse on this site, cookies collect data to enhance your experience and personalize the content and advertising you see.
Visit our Privacy Policy to learn more. By continuing to use the site, you agree to this use of cookies and data.
  • In United Kingdom
  • List of Countries
  • For 7 days
  • Water Temperature
  • Weather Map
  • Weather Widgets
  • user-avatar
    Login

    Hourly Weather Aberdare

    Today, 28 February, Friday

    Time Temperature Precipitation Wind Pressure Humidity
    00:00 +1°C° 0 mm 3 mps 737 mmHg 86%
    01:00 +1°C° 0 mm 3 mps 737 mmHg 85%
    02:00 +1°C° 0 mm 3 mps 736 mmHg 84%
    03:00 +1°C° 0 mm 3 mps 736 mmHg 84%
    04:00 0°C° 0.1 mm 4 mps 735 mmHg 86%
    05:00 -1°C° 0.1 mm 6 mps 734 mmHg 89%
    06:00 0°C° 0.1 mm 7 mps 733 mmHg 92%
    07:00 0°C° 1.2 mm 7 mps 731 mmHg 93%
    08:00 +1°C° 1.2 mm 8 mps 730 mmHg 94%
    09:00 +1°C° 1.2 mm 9 mps 729 mmHg 96%
    10:00 +4°C° 2.8 mm 8 mps 728 mmHg 96%
    11:00 +5°C° 2.8 mm 8 mps 727 mmHg 97%
    12:00 +6°C° 2.8 mm 8 mps 727 mmHg 98%
    13:00 +7°C° 1.4 mm 9 mps 726 mmHg 96%
    14:00 +7°C° 1.4 mm 9 mps 726 mmHg 95%
    15:00 +7°C° 1.4 mm 10 mps 725 mmHg 94%
    16:00 +7°C° 1.3 mm 10 mps 724 mmHg 94%
    17:00 +7°C° 1.3 mm 10 mps 724 mmHg 95%
    18:00 +7°C° 1.3 mm 10 mps 723 mmHg 95%
    19:00 +7°C° 1.6 mm 10 mps 722 mmHg 95%
    20:00 +7°C° 1.6 mm 9 mps 721 mmHg 95%
    21:00 +7°C° 1.6 mm 9 mps 721 mmHg 95%
    22:00 +7°C° 1.1 mm 10 mps 719 mmHg 94%
    23:00 +7°C° 1.1 mm 10 mps 718 mmHg 94%

    Tomorrow, 29 February, Saturday

    Time Temperature Precipitation Wind Pressure Humidity
    00:00 +7°C° 1.1 mm 10 mps 717 mmHg 93%
    01:00 +7°C° 1.6 mm 11 mps 716 mmHg 93%
    02:00 +7°C° 1.6 mm 12 mps 715 mmHg 93%
    03:00 +7°C° 1.6 mm 12 mps 713 mmHg 93%
    04:00 +4°C° 0.6 mm 11 mps 714 mmHg 89%
    05:00 +3°C° 0.6 mm 10 mps 714 mmHg 86%
    06:00 +1°C° 0.6 mm 9 mps 714 mmHg 82%
    07:00 0°C° 0.2 mm 9 mps 714 mmHg 81%
    08:00 0°C° 0.2 mm 9 mps 714 mmHg 81%
    09:00 -1°C° 0.2 mm 9 mps 715 mmHg 80%
    10:00 -2°C° 0.2 mm 10 mps 715 mmHg 75%
    11:00 -1°C° 0.2 mm 12 mps 716 mmHg 71%
    12:00 0°C° 0.2 mm 13 mps 716 mmHg 66%
    13:00 0°C° 0.1 mm 13 mps 716 mmHg 66%
    14:00 0°C° 0.1 mm 13 mps 716 mmHg 67%
    15:00 0°C° 0.1 mm 13 mps 716 mmHg 67%
    16:00 0°C° 0.1 mm 13 mps 716 mmHg 72%
    17:00 -1°C° 0.1 mm 12 mps 716 mmHg 77%
    18:00 -2°C° 0.1 mm 11 mps 716 mmHg 83%
    19:00 -2°C° 0.2 mm 11 mps 716 mmHg 80%
    20:00 -2°C° 0.2 mm 11 mps 716 mmHg 77%
    21:00 -2°C° 0.2 mm 11 mps 717 mmHg 73%
    22:00 -2°C° 0.2 mm 11 mps 717 mmHg 74%
    23:00 -2°C° 0.2 mm 11 mps 717 mmHg 75%

    Day after tomorrow, 1 March, Sunday

    Time Temperature Precipitation Wind Pressure Humidity
    00:00 -2°C° 0.2 mm 11 mps 717 mmHg 76%
    01:00 -2°C° 0.2 mm 11 mps 717 mmHg 76%
    02:00 -2°C° 0.2 mm 11 mps 718 mmHg 77%
    03:00 -2°C° 0.2 mm 10 mps 718 mmHg 77%
    04:00 -2°C° 0.2 mm 10 mps 718 mmHg 77%
    05:00 -1°C° 0.2 mm 9 mps 718 mmHg 76%
    06:00 -1°C° 0.2 mm 9 mps 718 mmHg 76%
    07:00 0°C° 0.2 mm 9 mps 718 mmHg 76%
    08:00 0°C° 0.2 mm 8 mps 718 mmHg 75%
    09:00 0°C° 0.2 mm 8 mps 718 mmHg 75%
    10:00 +1°C° 0.3 mm 9 mps 718 mmHg 74%
    11:00 +1°C° 0.3 mm 9 mps 719 mmHg 73%
    12:00 +2°C° 0.3 mm 10 mps 719 mmHg 72%
    13:00 +2°C° 0.2 mm 10 mps 719 mmHg 72%
    14:00 +2°C° 0.2 mm 9 mps 718 mmHg 73%
    15:00 +2°C° 0.2 mm 9 mps 718 mmHg 74%
    16:00 +1°C° 0.1 mm 8 mps 718 mmHg 76%
    17:00 0°C° 0.1 mm 7 mps 718 mmHg 79%
    18:00 -1°C° 0.1 mm 6 mps 718 mmHg 81%
    19:00 0°C° 0 mm 5 mps 718 mmHg 83%
    20:00 0°C° 0 mm 4 mps 718 mmHg 85%
    21:00 0°C° 0 mm 4 mps 718 mmHg 86%
    22:00 0°C° 0 mm 3 mps 718 mmHg 87%
    23:00 0°C° 0 mm 3 mps 718 mmHg 87%

    2 March, Monday

    Time Temperature Precipitation Wind Pressure Humidity
    00:00 -1°C° 0 mm 3 mps 718 mmHg 87%
    01:00 -1°C° 0 mm 3 mps 718 mmHg 87%
    02:00 -1°C° 0 mm 3 mps 718 mmHg 88%
    03:00 -1°C° 0 mm 3 mps 718 mmHg 88%
    04:00 -1°C° 0 mm 3 mps 719 mmHg 87%
    05:00 -2°C° 0 mm 3 mps 719 mmHg 87%
    06:00 -2°C° 0 mm 3 mps 719 mmHg 86%
    07:00 -2°C° 0 mm 4 mps 720 mmHg 81%
    08:00 0°C° 0 mm 5 mps 720 mmHg 77%
    09:00 +1°C° 0 mm 6 mps 721 mmHg 72%
    10:00 0°C° 0.1 mm 7 mps 721 mmHg 69%
    11:00 +1°C° 0.1 mm 8 mps 722 mmHg 66%
    12:00 +2°C° 0.1 mm 8 mps 722 mmHg 63%
    13:00 +1°C° 0.2 mm 8 mps 722 mmHg 64%
    14:00 +1°C° 0.2 mm 8 mps 723 mmHg 65%
    15:00 +1°C° 0.2 mm 8 mps 723 mmHg 66%
    16:00 0°C° 0.1 mm 7 mps 723 mmHg 70%
    17:00 -1°C° 0.1 mm 6 mps 724 mmHg 74%
    18:00 -1°C° 0.1 mm 6 mps 725 mmHg 78%
    19:00 -2°C° 0 mm 6 mps 725 mmHg 80%
    20:00 -2°C° 0 mm 6 mps 726 mmHg 81%
    21:00 -1°C° 0 mm 5 mps 726 mmHg 83%
    22:00 -3°C° 0 mm 6 mps 727 mmHg 82%
    23:00 -3°C° 0 mm 6 mps 727 mmHg 82%

    3 March, Tuesday

    Time Temperature Precipitation Wind Pressure Humidity
    00:00 -3°C° 0 mm 6 mps 728 mmHg 82%
    01:00 -3°C° 0 mm 7 mps 728 mmHg 81%
    02:00 -3°C° 0 mm 7 mps 728 mmHg 81%
    03:00 -3°C° 0 mm 7 mps 729 mmHg 81%
    04:00 -3°C° 0 mm 6 mps 729 mmHg 81%
    05:00 -3°C° 0 mm 6 mps 729 mmHg 80%
    06:00 -2°C° 0 mm 5 mps 730 mmHg 80%
    07:00 -2°C° 0 mm 6 mps 730 mmHg 77%
    08:00 -1°C° 0 mm 6 mps 730 mmHg 74%
    09:00 +1°C° 0 mm 6 mps 731 mmHg 71%
    10:00 +2°C° 0.1 mm 6 mps 731 mmHg 69%
    11:00 +3°C° 0.1 mm 6 mps 731 mmHg 66%
    12:00 +3°C° 0.1 mm 5 mps 731 mmHg 63%
    13:00 +3°C° 0.1 mm 5 mps 730 mmHg 62%
    14:00 +3°C° 0.1 mm 5 mps 730 mmHg 62%
    15:00 +3°C° 0.1 mm 5 mps 730 mmHg 61%
    16:00 +3°C° 0 mm 4 mps 730 mmHg 67%
    17:00 +2°C° 0 mm 3 mps 730 mmHg 73%
    18:00 +1°C° 0 mm 2 mps 730 mmHg 79%
    19:00 +2°C° 0 mm 1 mps 730 mmHg 80%
    20:00 +1°C° 0 mm 1 mps 730 mmHg 80%
    21:00 +1°C° 0 mm 1 mps 730 mmHg 81%
    22:00 +1°C° 0 mm 1 mps 730 mmHg 81%
    23:00 0°C° 0 mm 1 mps 729 mmHg 81%

    4 March, Wednesday

    Time Temperature Precipitation Wind Pressure Humidity
    00:00 0°C° 0 mm 1 mps 729 mmHg 81%
    01:00 0°C° 0 mm 1 mps 729 mmHg 81%
    02:00 0°C° 0 mm 1 mps 729 mmHg 81%
    03:00 0°C° 0 mm 1 mps 729 mmHg 82%
    04:00 0°C° 0 mm 1 mps 729 mmHg 81%
    05:00 0°C° 0 mm 1 mps 729 mmHg 81%
    06:00 0°C° 0 mm 1 mps 729 mmHg 81%
    07:00 -1°C° 0 mm 2 mps 729 mmHg 76%
    08:00 +1°C° 0 mm 2 mps 729 mmHg 71%
    09:00 +2°C° 0 mm 2 mps 729 mmHg 67%
    10:00 +2°C° 0 mm 3 mps 729 mmHg 64%
    11:00 +3°C° 0 mm 3 mps 729 mmHg 62%
    12:00 +4°C° 0 mm 4 mps 729 mmHg 59%
    13:00 +5°C° 0 mm 4 mps 728 mmHg 62%
    14:00 +5°C° 0 mm 5 mps 728 mmHg 65%
    15:00 +5°C° 0 mm 5 mps 727 mmHg 68%
    16:00 +3°C° 0 mm 5 mps 727 mmHg 71%
    17:00 +2°C° 0 mm 5 mps 727 mmHg 74%
    18:00 +1°C° 0 mm 5 mps 727 mmHg 77%
    19:00 0°C° 0 mm 5 mps 727 mmHg 77%
    20:00 -1°C° 0 mm 5 mps 727 mmHg 78%
    21:00 -1°C° 0 mm 5 mps 728 mmHg 79%
    22:00 -2°C° 0 mm 5 mps 728 mmHg 80%
    23:00 -2°C° 0 mm 4 mps 728 mmHg 81%
    Show more